Flag Weather past 2 weeks in Brades, Montserrat

Now
77 °F

Passing clouds.


Feels Like: 78 °F
Forecast: 78 / 82 °F
Wind: 3 mph from Southeast

Location: Vc Bird International Antigua Airport

Current Time: Nov 28, 2014 at 10:57:32 PM

Latest Report: Nov 28, 2014 at 10:00 PM


Visibility: N/A

Pressure: 29.98 "Hg

Humidity: 89%

Dew point: 73 °F

Location of BradesLocation

Historic Weather in Brades — Graph

°F

Brades temperature yesterday

Maximum temperature yesterday: 82 °F (at 9:00 AM)
Minimum temperature yesterday: 77 °F (at 4:00 AM)
Average temperature yesterday: 79 °F

Past Weeks' High & Low Weather Summary

 TemperatureHumidityPressure
High86 °F (Nov 15, 10:00 AM)100% (Nov 28, 6:00 AM)30.07 "Hg (Nov 28, 6:00 AM)
Low72 °F (Nov 28, 4:00 AM)58% (Nov 27, 9:00 AM)29.86 "Hg (Nov 14, 3:00 AM)
Average80 °F78%29.98 "Hg
* Reported Nov 13 10:00 PM — Nov 28 10:00 PM, Brades, Weather by CustomWeather, © 2014

Note: Actual official high and low records may vary slightly from our data, if they occured in-between our weather recording intervals... More about our weather records

Advertising

Brades weather history for previous 24 hours

 ConditionsComfort  
Time TempWeatherWind HumidityBarometerVisibility
10:00 PM
Nov 28
77 °FPassing clouds.3 mph89%29.98 "HgN/A
9:00 PM77 °FPassing clouds.5 mph89%29.98 "HgN/A
8:00 PM77 °FPassing clouds.5 mph89%29.95 "HgN/A
7:00 PM77 °FPassing clouds.2 mph89%29.95 "HgN/A
6:00 PM79 °FPassing clouds.3 mph84%29.92 "HgN/A
5:00 PM81 °FPassing clouds.5 mph79%29.92 "HgN/A
4:00 PM82 °FScattered clouds.5 mph74%29.92 "HgN/A
3:00 PM82 °FScattered clouds.7 mph74%29.89 "HgN/A
2:00 PM84 °FScattered clouds.5 mph74%29.92 "HgN/A
1:00 PM84 °FPartly sunny.7 mph74%29.92 "HgN/A
12:00 PM81 °FScattered clouds.8 mph84%29.98 "HgN/A
11:00 AM81 °FSprinkles. Partly sunny.6 mph79%29.98 "HgN/A
10:00 AM82 °FScattered clouds.5 mph79%30.01 "HgN/A
9:00 AM82 °FScattered clouds.3 mph79%29.98 "HgN/A
8:00 AM79 °FPassing clouds.1 mph84%29.98 "HgN/A
7:00 AM73 °FPassing clouds.2 mph94%29.95 "HgN/A
6:00 AM73 °FPassing clouds.2 mph100%29.92 "HgN/A
5:00 AM73 °FPassing clouds.3 mph94%29.92 "HgN/A
4:00 AM72 °FLight rain. Partly cloudy.3 mph94%29.89 "HgN/A
3:00 AM73 °FPassing clouds.2 mph89%29.89 "HgN/A
2:00 AM73 °FPassing clouds.7 mph94%29.92 "HgN/A
1:00 AM75 °FPassing clouds.2 mph89%29.95 "HgN/A
12:00 AM75 °FPassing clouds.1 mph89%29.95 "HgN/A
11:00 PM
Nov 27
77 °FPassing clouds.1 mph83%29.95 "HgN/A
10:00 PM77 °FPassing clouds.1 mph83%29.95 "HgN/A
Weather by CustomWeather, © 2014

See weather overviewHow to use our weather pages